Regional Weather Roundup
Issued by NWS

Home | Current Version | Previous Version | Graphics & Text | Print | Product List | Glossary On
Versions: 1 2 3 4 5 6 7 8 9 10 11 12 13 14 15 16 17 18 19 20 21 22 23 24 25 26 27 28 29 30 31 32 33 34 35 36 37 38 39 40 41 42 43 44 45 46 47 48 49 50
000
ASUS43 KFSD 010510
RWRSD

WEATHER ROUNDUP FOR SOUTH DAKOTA
NATIONAL WEATHER SERVICE SIOUX FALLS SD
1200 AM CDT FRI AUG 01 2014

NOTE: "FAIR" INDICATES FEW OR NO CLOUDS BELOW 12,000 FEET WITH NO
SIGNIFICANT WEATHER AND/OR OBSTRUCTIONS TO VISIBILITY.


SDZ001>005-009-010-012>017-010600-
NORTHWEST AND NORTH CENTRAL SOUTH DAKOTA

CITY           SKY/WX    TMP DP  RH WIND       PRES   REMARKS
BUFFALO          N/A     65  47  52 S3        30.02S
FAITH            N/A     65  55  70 SE10      30.07S
MOBRIDGE       CLEAR     66  58  75 SE8       30.03R
$$

SDZ012>016-024>037-041>051-057-063-072>074-010600-
SOUTHWEST AND SOUTH CENTRAL SOUTH DAKOTA

CITY           SKY/WX    TMP DP  RH WIND       PRES   REMARKS
RAPID CTY ARPT PTCLDY    60  52  74 W8        30.13S
PIERRE         CLEAR     69  59  70 SE9       30.05R
CUSTER         CLEAR     54  51  90 N5        30.28S
ELLSWORTH AFB  PTCLDY    68  49  49 VRB2      30.12F
PHILIP         PTCLDY    67  51  56 CALM      30.07R
PINE RIDGE     PTCLDY    60  54  80 NE3       30.16R
WINNER         FAIR      70  58  65 SE7       30.08R
$$

SDZ004>011-016>023-039-040-010600-
NORTHEAST SOUTH DAKOTA

CITY           SKY/WX    TMP DP  RH WIND       PRES   REMARKS
ABERDEEN       CLEAR     57  55  93 SE3       30.05R
WATERTOWN      CLEAR     63  55  75 CALM      30.07S
SISSETON         N/A     61  59  93 CALM      30.03R
$$

SDZ017-020-022-023-036>040-048>070-010600-
SOUTHEAST SOUTH DAKOTA

CITY           SKY/WX    TMP DP  RH WIND       PRES   REMARKS
SIOUX FALLS    CLEAR     61  58  90 CALM      30.07R
HURON          CLEAR     63  58  83 CALM      30.05S
CHAMBERLAIN    CLEAR     62  56  81 CALM      30.07R
MITCHELL       CLEAR     67  61  81 S8        30.06S
YANKTON        CLEAR     63  59  88 CALM      30.08R
$$

ABBREVIATIONS USED IN REMARKS
   TC - TEMPERATURE IN CELSIUS
  WCI - WIND CHILL INDEX
   HX - HEAT INDEX
  VSB - VISIBILITY



USA.gov is the U.S. government's official web portal to all federal, state and local government web resources and services.